Погода в Мариуполе

Погода в Мариуполе : погода сейчас, прогноз погоды и архив. Всё, что Вы хотите узнать о погоде в Мариуполе!

Поиск расширенной информации на нашем сайте:

Другие новости

Новости СМИ2

Главная страница сайта

Новости сайта

02.10.2013

Напоминаем, что на нашем новом сайте вы можете получить высокодетализированные прогнозы погоды по пунктам России, СНГ и мира (включающие важные для авиации метеовеличины, такие как направление и скорость ветра, видимость, явления погоды, количество и форма облачности, нижняя и верхняя граница облачности), а также ознакомиться с разнообразными материалами по авиационной метеорологии и подборкой полезных ссылок на эту тему.

Сайт Метеоцентр.Азия посвящён разработке технологий оптимизации авиаметеорологического обслуживания, включая проектирование и перспективное создание нескольких автоматизированных авиаметеорологических систем:
- система выпуска высокодетальных прогностических карт явлений погоды для нижнего воздушного пространства по России и ближнему зарубежью;
- система верификации прогнозов TAF (выпускаемых синоптиками официальных АМСГ РФ и ближнего зарубежья) и AUTOTAF (выпускаемых сайтом Метеоцентр.Азия) - выявление ошибок, онлайн-сопоставление с фактической погодой METAR, автоматическое внесение коррективов в прогнозы при резком отклонении фактической погоды от прогноза, подсчёт оправдываемости прогнозов по элементам и в целом;
- система обработки, анализа и отображения авиаметеорологической информации для применения провайдерами метеорологической информации.

Рекомендуем: Деревянные окна

Погода в Мариуполе - сегодня

Время (UTC), дата Ветер
(°,м/с) 
Видим.   Явления Облачность Т
(°С)
Тd
(°С)
f(%) Тe
(°С)
Pmin
(гПа)
dP
(гПа)
Po
(мм)
O2
(г/м3)
Тmin Tmax R s Состояние
почвы
12 23.05.17 140 (ЮВ) 20000 м    4/3 1000 м средняя 
[Cu med, cong|Ac trans]
+16.9 +6.8 51 +17  1015.9  0.4  756  286           
15 23.05.17 140 (ЮВ) 20000 м    3/3 1000 м средняя 
[Cu hum|Ac lent]
+16.7 +6.8 52 +17  1016  756  286           
18 23.05.17 020 (С) 20000 м    3/0 верхняя 
[Cc]
+15.1 +6.2 55 +16  1017.4  1.4  757  288    +17       
21 23.05.17 360 (С) 20000 м    3/0 верхняя 
[Cs]
+10.9 +6.6 75 +11  1018.2  0.7  757  292           
00 24.05.17 360 (С) 10 км    ясно 
+8.8 +5.2 78 +9  1018.7  0.4  758  295           
03 24.05.17 340 (С) 10 км    4/0 средняя, верхняя 
[Ac trans|Ci fib]
+8.6 +5 78 +9  1019.1  0.4  758  295           
06 24.05.17 090 (В) 10 км    5/0 верхняя 
[Cc]
+17.1 +7.5 53 +18  1019.4  0.5  758  286  +7.4         
09 24.05.17 160 (Ю) 20000 м    4/3 600 м верхняя 
[Cu hum|Ci fib]
+18.3 +8.8 54 +19  1019.4  0.1  758  285           
12 24.05.17 140 (ЮВ) 20000 м    5/0 верхняя 
[Ci fib]
+18.4 +7 47 +19  1019.1  -0.3  758  285           
15 24.05.17 160 (Ю) 20000 м    5/1 1000 м верхняя 
[Cu hum|Cs]
+18.2 +8 51 +19  1018.3  -0.8  758  285           
18 24.05.17 270 (З) 20000 м    6/0 верхняя 
[Cs]
+15.3 +8.1 62 +16  1019  0.6  758  288    +18.7       
21 24.05.17 360 (С) 20000 м    3/0 верхняя 
[Cs]
+10.9 +6.6 75 +11  1018.2  0.7  757  292           
00 25.05.17 340 (С) 20000 м    3/0 средняя 
[Ac trans]
+11.3 +6.1 70 +12  1019.6  758  292           
03 25.05.17 тихо ()   10 км    6/4 600 м кучево-дожд., верхняя 
[Cb cap|Cs]
+11.7 +8.2 79 +12  1019.6  758  292           
06 25.05.17 140 (ЮВ) 10 км    8/5 600 м кучево-дожд., верхняя 
[Cb cap|Cs]
+15.7 +11.6 77 +19  1020  0.5  759  287  +9.6         
09 25.05.17 180 (Ю) 20000 м    8/3 600 м верхняя 
[Cu med, cong|Ci fib]
+17.3 +10.3 63 +19  1020.1  0.1  759  286           
12 25.05.17 160 (Ю) 20000 м    8/3 600 м верхняя 
[Cu hum|Ci fib]
+17.4 +11.3 67 +21  1019.3  -0.7  758  285           
15 25.05.17 160 (Ю) 20000 м    3/0 средняя, верхняя 
[Ac As|Ci fib]
+16.5 +10 65 +18  1018.6  -0.8  758  286           
18 25.05.17 290 (З) 20000 м    3/0 верхняя 
[Cs]
+14.8 +10.2 74 +16  1018.1  -0.5  757  288    +17.7       
21 25.05.17 320 (СЗ) 20000 м    ясно 
+12.3 +9.1 81 +12  1018.3  0.1  757  290           
00 26.05.17 340 (С) 20000 м    ясно 
+10.3 +8 86 +9  1017.9  -0.5  757  293           
03 26.05.17 360 (С) 10 км    3/0 верхняя 
[Cs]
+10.5 +7.8 83 +11  1017.8  757  292           
06 26.05.17 110 (В) 20000 м    3/3 600 м 
[Cu hum]
+17.5 +12.2 71 +22  1017.4  -0.2  757  284  +9         
09 26.05.17 140 (ЮВ) 20000 м    3/3 600 м 
[Cu hum]
+18.3 +11.7 65 +21  1016.8  -0.6  756  283           
12 26.05.17 160 (Ю) 20000 м    3/3 600 м 
[Cu hum]
+19 +11.5 62 +22  1015.3  -1.5  755  282           
Время (UTC), дата Ветер
(°,м/с) 
Видим.   Явления Облачность Т
(°С)
Тd
(°С)
f(%) Тe
(°С)
Pmin
(гПа)
dP
(гПа)
Po
(мм)
O2
(г/м3)
Тmin Tmax R s Состояние
почвы

Для получения пояснительной информации подведите курсор к названию столбца.

ПОГОДА в Мариуполе - архив

Всё, что Вы хотите узнать о погоде в Мариуполе - удобно и подробно!

Выберите нужную дату (начиная с 1 января 2015* года) и нажмите кнопку "Найти".
Будут отображены архивные сводки погоды по пункту Мариуполь, начиная с указанной даты.


Отображать данные в формате CSV (для использования в таблицах Excel)


Внимание! Наш архив погоды предназначен исключительно для личного некоммерческого использования в познавательных целях. Если Вам необходимы официальные справки о состоянии погоды (для производственных, юридических, коммерческих и т.п. целей), обращайтесь в органы Росгидромета.

*Примечание: данная дата относится к архиву по метеостанциям СССР (Россия, СНГ, Балтия).
Архив по метеостанциям Зарубежной Европы и Азии (кроме Китая) хранится 10 дней, по другим регионам земного шара (Китай, Африка, Америка, Австралия, Океания) - 1 день.

Мариуполь - район местоположения метеостанции


Название, широта, долгота, высота метеостанции:
Мариуполь (город) 47°ш. 37.5°д. 70 м над ур. моря [Украина]

Дополнительная информация

В oтличие oт бoльшинства пoгoдных сайтoв мы публикуем пoдрoбную метеoинфoрмацию в детальнoм прoфессиoнальнoм фoрмате.

Характеристики температуры и влажнoсти вoздуха измеряются на высoте 2 м в тени вдали oт зданий и деревьев.
Скoрoсть ветра измеряется на высoте 10 м (на урoвне рoста челoвека скoрoсть ветра ниже в 1.5-2 раза). Если метеoстанция нахoдится в гoрoде или в лесу, тo скoрoсть ветра занижена на 2-4 м/с пo сравнению с oткрытым местoм. Скoрoсть ветра над акватoриями крупных рек и oзёр, а также на вершинах хoлмoв на 2-5 м/с выше, чем в oбычных услoвиях.
Атмoсфернoе давление в разных тoчках местнoсти мoжет значительнo oтличаться oт давления на метеoстанции, в зависимoсти oт услoвий рельефа (при пoдъёме на 10 м давление пoнижается примернo на 1 мм рт.ст.).